Weather History for KVTN - January, 2013

Change the Weather History Date:

Wednesday, January 16, 2013

  Actual Average Record
Temperature  
Mean Temperature 37 °F 24 °F  
Max Temperature 47 °F 37 °F 70 °F (1974)
Min Temperature 26 °F 11 °F -22 °F (1890)
Degree Days  
Heating Degree Days 28 41  
Month to date heating degree days 663 669  
Since 1 July heating degree days 3339 3564  
Cooling Degree Days 0 0  
Month to date cooling degree days 0 0  
Year to date cooling degree days 0 0  
Moisture  
Dew Point 26 °F    
Average Humidity 69    
Maximum Humidity 92    
Minimum Humidity 45    
Precipitation  
Precipitation T in 0.00 in 0.28 in (1897)
Month to date precipitation 0.12 0.13  
Year to date precipitation 0.12 0.13  
Snow  
Snow T in 0.10 in 2.80 in (1897)
Month to date snowfall 2.8 2.1  
Since 1 July snowfall 16.1 14.8  
Snow Depth 2.00 in    
Sea Level Pressure  
Sea Level Pressure 30.10 in    
Wind  
Wind Speed 12 mph (WNW)    
Max Wind Speed 22 mph    
Max Gust Speed 29 mph    
Visibility 10 miles    
Events      
T = Trace of Precipitation, MM = Missing Value Source: NWS Daily Summary

Daily Weather History Graph

Daily Weather History Graph

Search for Another Location

Airport or City:

Trip Planner

Search our weather history database for the weather conditions in past years. The results will help you decide how hot, cold, wet, or windy it might be!

Date:

Astronomy

Jan. 16, 2013 Rise Set
Actual Time 8:09 AM CST 5:35 PM CST
Civil Twilight 7:38 AM CST 6:06 PM CST
Nautical Twilight 7:03 AM CST 6:41 PM CST
Astronomical Twilight 6:29 AM CST 7:15 PM CST
Moon 10:37 AM CST (1/16) 11:38 PM CST (1/16)
Length of Visible Light 10h 27m
Length of Day
9h 25m
Waxing Crescent, 28% of the Moon is Illuminated
Jan 16
Waxing Crescent
Jan 18
First Quarter
Jan 26
Full
Feb 3
Last Quarter
Feb 10
New

Hourly Weather History & Observations

Time (CST) Temp. Windchill Dew Point Humidity Pressure Visibility Wind Dir Wind Speed Gust Speed Precip Events Conditions
12:52 AM 35.1 °F 24.8 °F 28.9 °F 78% 29.97 in 10.0 mi West 17.3 mph 26.5 mph N/A   Overcast
1:52 AM 36.0 °F 25.6 °F 28.9 °F 76% 29.96 in 10.0 mi West 18.4 mph - N/A   Overcast
2:52 AM 37.4 °F 28.2 °F 28.4 °F 70% 29.89 in 10.0 mi West 16.1 mph - N/A   Mostly Cloudy
3:52 AM 36.0 °F 26.0 °F 28.0 °F 73% 29.98 in 10.0 mi West 17.3 mph - N/A   Mostly Cloudy
4:52 AM 34.0 °F 24.2 °F 27.0 °F 75% 29.99 in 10.0 mi West 15.0 mph - N/A   Mostly Cloudy
5:52 AM 33.1 °F 23.4 °F 26.1 °F 75% 30.00 in 10.0 mi WNW 13.8 mph - N/A   Overcast
6:52 AM 32.0 °F 20.8 °F 25.0 °F 75% 30.02 in 10.0 mi West 17.3 mph - N/A   Overcast
7:52 AM 30.2 °F 21.3 °F 24.8 °F 80% 29.95 in 10.0 mi West 10.4 mph - N/A   Mostly Cloudy
8:52 AM 28.0 °F 18.6 °F 21.9 °F 78% 30.05 in 10.0 mi WSW 10.4 mph - N/A   Clear
9:52 AM 34.0 °F 25.5 °F 25.0 °F 70% 30.06 in 10.0 mi West 11.5 mph - N/A   Partly Cloudy
10:52 AM 37.0 °F 29.3 °F 28.0 °F 70% 30.07 in 10.0 mi West 11.5 mph - N/A   Overcast
11:52 AM 41.0 °F 32.2 °F 28.0 °F 60% 30.06 in 10.0 mi West 18.4 mph 24.2 mph N/A   Mostly Cloudy
12:52 PM 41.0 °F 33.1 °F 28.0 °F 60% 30.06 in 10.0 mi WNW 15.0 mph - N/A   Partly Cloudy
1:52 PM 45.0 °F 38.5 °F 28.9 °F 53% 30.06 in 10.0 mi WNW 13.8 mph - N/A   Clear
2:52 PM 46.4 °F 39.8 °F 26.6 °F 46% 30.04 in 10.0 mi NW 16.1 mph 23.0 mph N/A   Clear
3:52 PM 46.0 °F 39.6 °F 28.0 °F 50% 30.12 in 10.0 mi NW 15.0 mph 23.0 mph N/A   Clear
4:52 PM 42.1 °F 34.2 °F 27.0 °F 55% 30.17 in 10.0 mi NNW 16.1 mph - N/A   Clear
5:52 PM 39.0 °F 32.8 °F 27.0 °F 62% 30.19 in 10.0 mi NNW 9.2 mph - N/A   Clear
6:52 PM 36.0 °F 32.1 °F 27.0 °F 70% 30.24 in 10.0 mi NNW 4.6 mph - N/A   Clear
7:52 PM 28.9 °F - 25.0 °F 85% 30.26 in 10.0 mi Calm Calm - N/A   Clear
8:52 PM 28.0 °F 22.8 °F 25.0 °F 88% 30.30 in 10.0 mi NW 4.6 mph - N/A   Clear
9:52 PM 28.0 °F 19.3 °F 25.0 °F 88% 30.30 in 10.0 mi WSW 9.2 mph - N/A   Clear
10:52 PM 27.0 °F 18.7 °F 24.1 °F 89% 30.30 in 10.0 mi West 8.1 mph - N/A   Clear
11:52 PM 26.1 °F 17.6 °F 21.9 °F 84% 30.31 in 10.0 mi West 8.1 mph - N/A   Clear